Retour au catalogue

COSMOS 397 DEB

ActifLEO
NORAD 5015·DEBRIS·🇷🇺 Russia

Lancé Feb 25, 1971 depuis Baikonur Cosmodrome

Loading…

Prochains Passages

TLE

Source: Space-Track
1 05015U 71015J   26230.17338178  .00000888  00000-0  27148-3 0  9995
2 05015  65.7051  69.6415 0641565 296.5473  57.1194 13.67537607673267

Suivez COSMOS 397 DEB en temps réel avec AllMySat

Download on the App Store